Wetbulb
49.35 50.02 49.92 49.94 50.44 49.56 49.15 42.99 34.19 44.84 46.05 36.37 37.29 34.71 33.57 36.55 36.27 39.52 37.51 37.47 35.69 34.29 34.58 32.22 31.39 30.49 34.75 39.97 38.83 34.19 37.35 33.99 30.80 32.04 37.91 38.93 37.08 35.25 34.55 31.74 29.16 32.13 30.08 28.07
49.27 49.65 49.67 49.91 49.36 48.54 46.19 37.86 37.38 44.67 44.66 32.48 33.74 34.41 33.88 35.81 35.43 36.86 35.96 35.32 36.95 37.24 34.47 30.56 34.19 33.93 39.54 40.29 38.61 37.15 38.75 33.56 29.38 31.84 35.60 38.72 35.27 37.49 36.51 35.57 36.58 30.77 27.50 29.61
48.96 49.04 49.56 49.96 49.31 49.11 46.20 38.96 33.07 37.60 39.95 39.73 36.33 32.95 32.59 32.05 36.79 37.18 36.79 36.33 37.60 35.97 34.27 35.92 33.23 33.03 38.07 40.04 39.80 41.21 40.81 34.23 31.79 27.87 30.64 34.21 33.04 35.97 36.85 35.12 32.15 31.00 31.33 32.29
48.32 49.16 49.77 50.03 50.02 49.34 45.69 41.20 37.27 38.59 32.00 34.54 35.47 35.69 34.59 32.39 31.36 36.40 37.56 35.36 36.06 34.79 31.72 33.30 33.05 34.18 36.70 39.27 41.44 41.22 39.71 31.68 34.13 35.73 36.42 36.75 35.49 35.60 36.71 34.08 35.88 31.77 33.12 33.48
48.19 49.33 49.42 50.39 50.11 49.35 44.46 38.72 37.95 39.91 36.27 37.26 35.72 33.88 32.91 32.65 33.17 34.97 33.73 33.78 36.63 36.13 33.50 33.78 32.23 34.93 35.27 34.97 39.82 38.99 40.32 33.68 34.81 32.22 36.44 36.84 33.62 36.17 37.01 36.97 37.25 36.41 36.57 35.27
48.34 49.84 49.10 50.21 49.67 49.52 43.36 43.72 42.48 41.33 36.02 36.12 34.82 35.04 34.32 34.01 35.75 35.29 36.81 37.39 36.84 34.81 36.20 38.67 39.85 40.41 39.95 38.97 37.68 37.66 37.60 36.01 33.59 29.68 34.37 34.22 30.98 33.76 35.52 37.06 38.59 38.30 33.67 37.72
49.12 49.54 49.34 50.11 49.91 49.75 44.58 44.88 43.24 39.08 33.68 36.20 35.52 34.98 35.33 34.68 35.81 34.35 36.57 39.53 37.83 38.00 41.74 41.54 41.40 40.87 39.94 40.07 39.46 39.99 36.69 35.44 34.97 31.60 32.85 24.97 33.79 39.95 39.66 38.03 38.57 39.98 39.21 39.93
49.33 49.29 49.84 50.23 50.08 49.52 46.04 45.16 43.22 40.42 34.88 37.43 35.21 34.68 34.87 36.15 37.10 36.54 36.60 37.02 38.79 41.91 40.90 37.43 34.61 34.93 35.57 36.52 38.10 38.33 39.13 36.50 33.18 30.51 29.39 31.46 34.01 37.18 37.38 36.17 35.68 40.16 39.53 40.91
49.21 49.21 49.36 49.86 49.97 49.13 46.60 44.94 44.87 42.65 37.33 34.91 37.31 35.24 36.25 34.74 35.42 35.42 35.21 39.02 41.97 41.87 40.32 36.63 30.34 29.74 31.74 31.12 34.01 38.25 37.58 37.81 35.02 32.37 26.89 24.92 34.17 38.36 41.28 41.29 31.66 41.29 41.71 41.01
48.38 48.66 49.09 49.69 50.47 49.77 47.08 43.29 44.02 43.52 36.97 36.04 37.82 35.60 35.40 39.07 38.24 36.78 36.49 37.09 38.41 40.90 38.36 34.53 32.87 31.60 34.71 30.57 30.25 31.51 33.36 34.32 32.15 32.20 29.62 31.67 37.54 39.70 41.32 30.40 33.74 42.24 42.83 42.49
52.02 51.82 50.68 50.52 50.89 48.61 47.02 41.85 43.92 43.18 37.84 35.64 36.91 36.89 36.47 36.74 38.83 36.69 37.72 36.86 37.38 38.10 35.12 34.69 34.80 33.90 34.82 33.39 34.37 33.18 32.20 31.67 31.52 32.34 29.67 26.48 39.97 39.45 35.07 40.37 44.02 43.69 43.41 43.54
51.69 51.62 51.45 50.50 48.19 46.53 47.49 41.55 43.32 44.63 39.90 35.79 39.12 38.31 38.64 37.50 37.20 38.89 38.80 37.13 38.03 40.94 38.34 37.06 37.43 34.51 35.38 34.14 31.11 36.55 31.87 35.07 33.84 33.77 33.09 38.80 41.04 41.16 42.93 43.72 43.81 43.69 44.19 44.11
50.37 50.15 49.89 49.52 48.49 47.05 46.77 42.74 43.35 43.39 38.62 37.56 38.56 35.75 39.04 41.08 39.55 40.63 38.43 39.76 40.10 39.76 40.15 39.99 38.18 33.65 37.08 33.03 33.78 35.31 36.49 37.93 36.31 35.34 37.08 39.44 41.09 42.66 43.79 44.56 44.13 44.81 45.32 44.86
51.60 52.19 50.05 48.98 48.16 47.45 47.14 43.65 43.35 44.01 41.28 35.57 33.85 40.14 37.48 40.35 41.21 39.98 39.77 40.01 40.42 41.17 41.29 39.54 38.21 35.35 37.32 35.52 34.99 35.38 37.97 37.93 36.83 36.12 38.05 39.45 40.71 42.51 43.56 43.27 43.87 43.88 44.78 45.38
51.70 51.88 50.08 48.53 47.41 46.32 45.66 44.04 43.16 43.80 41.32 34.25 33.89 37.24 38.51 40.36 40.70 39.90 40.73 40.70 40.17 40.36 38.59 37.89 36.43 38.07 36.30 36.90 35.96 34.54 38.66 37.89 35.49 35.81 40.89 41.09 41.65 42.76 43.79 42.63 42.03 42.65 43.44 43.49
51.58 50.72 49.48 48.24 46.80 46.11 45.10 41.04 43.37 43.18 44.03 38.36 32.22 37.02 36.46 38.80 39.62 38.87 38.11 38.42 38.89 39.46 38.39 37.29 37.06 36.13 35.39 33.07 32.63 38.56 40.50 42.50 42.97 40.44 43.35 42.95 43.63 43.12 43.30 42.22 41.90 42.09 42.30 42.97
50.72 49.29 48.22 47.19 46.81 45.65 41.09 39.18 41.33 41.78 43.86 37.84 31.90 32.26 36.25 37.42 37.81 38.71 38.76 38.80 38.06 38.31 37.00 35.71 36.16 35.37 35.65 34.17 31.51 38.13 39.12 41.03 40.93 42.93 41.57 39.11 40.66 39.98 41.80 42.19 41.84 41.63 41.93 42.11
49.12 48.12 47.83 46.75 45.35 44.15 41.43 42.53 43.12 42.88 40.48 39.38 32.44 30.21 32.97 37.35 35.13 34.88 38.04 36.58 37.31 36.33 36.01 35.34 34.12 34.75 34.56 30.05 36.26 36.27 38.65 40.35 40.51 41.28 40.52 42.96 42.75 42.05 40.81 41.43 40.85 40.10 40.23 40.81
48.16 47.21 47.06 46.76 43.88 41.96 40.73 42.24 41.81 43.29 40.90 35.34 33.95 31.44 30.49 36.56 35.25 36.38 36.27 36.65 33.08 35.85 33.44 33.57 33.79 33.21 29.76 35.20 37.00 35.70 37.65 38.08 39.01 41.04 39.33 40.37 39.67 39.62 39.17 38.85 38.78 38.50 39.09 39.35
46.80 45.67 42.39 38.80 41.19 43.06 42.30 41.11 39.11 39.43 37.95 36.73 32.83 34.87 31.46 35.06 34.28 33.62 34.31 34.64 33.43 31.33 33.42 34.51 30.66 31.46 37.24 38.40 38.47 39.13 38.82 40.16 40.68 36.47 35.10 36.95 37.62 38.02 38.15 37.98 39.20 39.05 38.88 38.52
45.28 41.60 38.09 41.34 42.72 40.55 37.73 36.17 35.98 34.68 33.79 33.83 32.95 34.29 30.49 35.58 32.88 33.50 34.60 32.20 32.30 28.87 31.53 30.09 31.49 30.88 35.23 36.71 36.99 38.92 39.97 40.63 40.16 41.36 41.31 40.20 40.17 38.76 38.29 37.82 38.17 38.06 37.94 37.21
43.38 41.52 42.99 42.33 39.60 36.22 33.69 33.01 31.60 30.22 31.79 30.80 31.10 31.86 35.59 34.10 36.36 33.81 31.79 30.68 29.00 27.55 32.69 28.86 27.47 34.85 34.56 34.34 36.04 36.88 39.61 39.68 39.83 39.84 39.79 39.94 39.30 39.59 38.92 38.41 37.65 37.71 37.95 37.50
44.11 41.38 37.85 36.43 36.49 30.68 28.50 25.97 28.71 29.22 31.15 31.55 31.83 31.20 33.93 33.37 35.04 32.53 30.80 27.50 27.88 32.03 27.91 28.02 33.28 34.26 33.10 33.90 35.15 35.73 39.09 39.32 39.06 38.05 38.83 38.48 37.99 38.54 38.03 36.90 37.55 37.74 37.02 36.89
39.39 34.64 31.61 31.38 30.94 31.73 33.95 34.16 35.91 34.28 34.39 33.28 35.64 32.42 33.38 33.72 31.34 31.03 27.57 29.80 29.61 25.93 23.93 27.41 36.12 35.81 34.07 33.89 34.88 35.49 36.41 37.68 37.15 36.74 36.76 36.79 36.56 36.31 36.67 36.59 36.79 35.91 34.96 34.91
34.81 34.60 31.12 31.95 34.73 33.01 32.29 32.69 31.82 32.12 35.43 34.60 32.87 32.79 33.76 30.93 28.39 30.04 27.61 24.21 23.78 26.63 29.81 35.96 36.33 32.61 31.21 32.39 33.83 34.54 34.77 35.89 35.58 35.91 35.31 35.44 35.57 35.04 34.76 35.20 35.09 34.25 33.20 31.83
33.19 32.97 31.99 32.75 31.21 31.25 30.45 31.79 32.42 34.70 34.75 33.90 35.69 30.54 28.63 28.83 29.98 25.63 25.35 25.90 26.28 34.61 35.16 36.67 31.78 28.39 30.02 32.89 34.21 34.61 33.86 33.42 33.18 33.61 34.09 34.55 34.16 33.43 34.22 34.84 34.45 33.79 32.73 31.84
31.96 31.58 33.10 34.61 33.48 35.02 33.56 33.28 33.45 35.80 33.69 32.69 32.35 28.14 29.18 29.08 26.86 25.50 29.86 28.84 37.09 36.55 34.33 32.63 31.27 31.28 31.02 33.82 34.18 34.00 33.87 33.76 33.92 34.29 34.78 34.99 35.10 34.66 33.14 31.68 33.28 32.83 33.29 32.88
MSLP
1010.94 1010.80 1010.92 1011.26 1011.56 1012.05 1012.58 1013.30 1014.06 1014.77 1014.87 1014.21 1013.53 1012.75 1012.27 1012.31 1011.97 1011.95 1011.85 1011.88 1011.91 1011.89 1012.20 1012.41 1012.81 1012.87 1012.45 1012.56 1012.59 1011.87 1011.68 1011.50 1010.42 1009.58 1009.10 1009.04 1008.57 1007.66 1007.08 1006.18 1005.82 1005.88 1006.14 1007.82
1010.40 1010.53 1010.75 1011.01 1011.68 1011.84 1012.61 1013.57 1014.38 1015.09 1014.98 1013.78 1013.20 1012.77 1012.48 1012.19 1011.92 1011.93 1012.00 1012.02 1012.21 1012.31 1012.21 1012.39 1012.49 1012.96 1012.38 1012.32 1012.26 1011.93 1011.50 1011.01 1010.13 1008.61 1008.60 1008.20 1007.81 1006.94 1006.81 1006.58 1006.02 1006.27 1006.36 1008.18
1010.00 1010.26 1010.59 1011.01 1011.67 1012.19 1012.86 1013.53 1014.26 1015.02 1014.93 1013.74 1012.43 1012.19 1012.08 1012.15 1012.26 1012.17 1012.35 1012.35 1012.49 1012.31 1012.13 1012.36 1012.46 1012.91 1012.24 1012.26 1011.99 1011.94 1011.74 1011.18 1010.59 1009.89 1009.60 1009.39 1008.50 1007.24 1006.79 1006.68 1006.65 1007.57 1007.85 1008.21
1009.81 1010.14 1010.54 1011.09 1011.72 1012.13 1012.61 1012.79 1012.97 1013.39 1013.63 1013.24 1012.49 1012.04 1011.87 1011.88 1012.14 1012.48 1012.68 1012.56 1012.54 1012.69 1012.29 1012.22 1012.27 1012.74 1012.36 1011.89 1011.64 1011.18 1010.92 1011.03 1010.51 1009.94 1009.61 1008.95 1008.54 1008.26 1007.68 1007.35 1007.64 1007.93 1008.60 1008.54
1009.58 1010.13 1010.56 1011.05 1011.52 1012.05 1012.47 1012.26 1012.30 1012.88 1012.54 1012.63 1012.43 1012.16 1011.89 1011.84 1012.26 1012.43 1012.62 1012.64 1012.54 1012.91 1012.55 1012.73 1012.32 1012.40 1012.52 1012.15 1011.42 1011.04 1010.76 1010.76 1010.69 1010.17 1009.65 1009.26 1009.36 1009.06 1008.94 1008.53 1008.57 1008.78 1009.19 1009.57
1009.55 1010.19 1010.73 1011.13 1011.58 1012.12 1012.39 1012.42 1012.53 1011.74 1012.53 1012.43 1012.28 1011.62 1011.78 1012.04 1012.47 1012.99 1013.02 1012.66 1012.81 1013.18 1013.17 1012.98 1012.73 1012.50 1012.55 1012.55 1012.00 1011.25 1010.81 1010.44 1010.20 1010.04 1010.00 1009.67 1009.74 1010.43 1009.86 1009.65 1009.62 1009.25 1009.76 1010.39
1009.65 1010.23 1010.71 1011.13 1011.68 1012.05 1012.35 1011.90 1011.90 1011.40 1011.73 1011.82 1011.77 1011.89 1012.17 1012.40 1012.69 1012.82 1013.35 1013.08 1012.99 1013.91 1013.73 1013.51 1013.03 1012.63 1012.49 1012.40 1012.32 1012.09 1011.21 1010.80 1010.40 1009.55 1009.50 1009.66 1010.93 1011.13 1010.81 1010.42 1010.46 1010.27 1010.35 1010.66
1009.77 1010.10 1010.52 1011.20 1011.82 1012.26 1012.50 1012.26 1011.90 1011.35 1011.35 1011.57 1012.16 1012.44 1012.52 1013.05 1013.36 1013.47 1013.83 1014.26 1014.43 1013.98 1013.71 1012.69 1012.33 1012.21 1012.18 1012.13 1012.27 1012.19 1012.02 1011.23 1010.35 1009.73 1009.74 1010.88 1011.09 1011.42 1011.38 1011.21 1011.13 1010.96 1010.63 1010.73
1009.64 1010.05 1010.58 1011.25 1011.85 1012.20 1012.44 1012.72 1012.59 1012.07 1011.77 1012.70 1012.58 1012.95 1013.17 1012.99 1013.32 1014.10 1014.60 1014.86 1014.77 1014.29 1013.17 1012.40 1011.60 1011.36 1011.60 1011.60 1011.91 1012.21 1011.94 1011.44 1010.72 1010.31 1010.34 1010.52 1010.81 1011.57 1011.53 1011.34 1011.70 1011.61 1011.39 1011.33
1009.36 1009.73 1010.32 1011.07 1011.84 1012.29 1012.39 1013.09 1013.37 1012.62 1012.69 1014.41 1013.94 1013.74 1013.54 1013.46 1013.60 1013.68 1014.55 1014.79 1014.77 1014.45 1012.93 1012.01 1011.62 1011.28 1011.85 1011.28 1011.30 1011.40 1011.05 1010.73 1010.49 1010.47 1010.71 1011.43 1011.86 1011.96 1012.13 1012.05 1012.56 1012.13 1012.13 1012.23
1006.85 1007.57 1009.44 1010.94 1011.66 1012.39 1012.49 1013.69 1013.73 1013.32 1013.51 1015.40 1015.57 1015.31 1014.87 1014.95 1014.33 1013.87 1014.68 1014.94 1014.78 1014.27 1013.15 1012.21 1011.73 1011.44 1011.67 1011.55 1011.62 1011.43 1011.11 1010.90 1010.80 1011.15 1011.19 1012.12 1012.75 1012.82 1012.59 1012.65 1012.71 1012.74 1012.92 1013.03
1007.51 1007.90 1009.48 1010.89 1011.90 1012.49 1012.16 1013.21 1014.01 1013.72 1013.98 1016.18 1016.53 1016.70 1016.63 1016.42 1016.10 1015.35 1015.18 1014.80 1014.22 1013.69 1013.03 1012.80 1012.20 1011.73 1012.13 1011.60 1011.08 1011.89 1011.49 1011.68 1011.42 1011.84 1012.15 1012.86 1013.10 1013.07 1013.40 1013.29 1013.22 1013.55 1013.51 1013.72
1009.46 1009.76 1010.35 1011.29 1011.76 1012.04 1012.22 1013.28 1013.79 1013.63 1014.74 1016.07 1016.14 1016.69 1016.90 1016.79 1016.70 1016.63 1015.69 1015.16 1014.91 1014.54 1014.39 1013.26 1012.89 1012.48 1012.32 1011.61 1011.42 1011.44 1011.87 1012.12 1011.66 1012.06 1012.50 1012.71 1013.13 1013.50 1013.55 1013.60 1013.72 1013.90 1014.01 1014.06
1010.18 1010.49 1010.92 1011.21 1011.74 1012.25 1012.49 1012.95 1013.73 1013.34 1013.63 1014.57 1016.69 1016.95 1016.96 1017.16 1016.72 1016.48 1016.24 1015.74 1015.53 1015.04 1014.60 1013.75 1013.34 1013.19 1013.53 1012.64 1012.59 1011.89 1011.76 1011.89 1011.53 1011.84 1012.45 1012.88 1013.20 1013.39 1013.70 1014.09 1014.28 1014.41 1014.50 1014.53
1010.63 1011.09 1011.48 1011.76 1011.92 1012.29 1012.68 1013.39 1013.98 1013.86 1013.85 1014.59 1016.26 1016.98 1017.28 1017.02 1016.69 1016.47 1016.22 1015.91 1015.55 1014.99 1014.54 1014.15 1013.91 1014.25 1014.21 1013.66 1013.21 1011.63 1011.26 1010.80 1010.86 1010.46 1010.95 1011.51 1012.01 1013.15 1013.83 1014.22 1014.60 1014.94 1014.94 1015.04
1010.81 1011.42 1011.86 1012.20 1012.35 1012.63 1012.58 1013.54 1014.21 1014.21 1014.02 1014.15 1015.90 1017.15 1017.10 1017.06 1016.85 1016.74 1016.64 1016.45 1016.03 1015.47 1014.88 1014.75 1014.99 1015.36 1015.13 1013.76 1012.18 1010.30 1010.46 1010.68 1010.69 1010.89 1011.25 1011.87 1012.33 1013.37 1013.92 1014.41 1014.96 1015.32 1015.45 1015.62
1011.08 1011.75 1012.07 1012.55 1012.89 1013.25 1013.76 1014.43 1014.73 1014.55 1014.32 1014.33 1015.98 1016.64 1017.18 1017.25 1017.03 1016.89 1016.74 1016.67 1016.35 1015.92 1015.54 1015.32 1015.20 1015.37 1015.25 1013.83 1011.77 1010.09 1010.62 1011.17 1011.67 1011.70 1012.38 1013.04 1013.37 1013.56 1014.29 1014.83 1015.40 1015.81 1015.94 1016.08
1011.68 1012.21 1012.71 1013.01 1013.55 1014.32 1014.40 1014.63 1014.58 1014.60 1014.24 1014.43 1015.64 1016.71 1017.01 1017.31 1016.75 1016.73 1017.09 1016.57 1016.39 1016.25 1015.91 1015.96 1015.41 1015.41 1014.84 1012.81 1010.57 1010.70 1010.90 1011.46 1011.90 1012.09 1012.57 1012.37 1013.21 1013.89 1014.64 1015.23 1015.62 1015.87 1016.06 1016.09
1012.11 1012.78 1013.33 1013.46 1013.95 1014.39 1014.90 1014.91 1014.73 1014.61 1014.77 1014.67 1015.40 1015.92 1016.60 1017.24 1016.96 1016.92 1017.08 1016.87 1016.36 1016.65 1015.89 1015.65 1015.65 1014.11 1012.80 1010.01 1009.72 1010.18 1010.68 1011.10 1011.53 1012.37 1013.08 1013.27 1013.60 1014.14 1014.78 1015.27 1015.61 1015.90 1016.09 1016.45
1012.72 1013.12 1013.63 1014.40 1014.94 1015.22 1014.95 1014.82 1014.70 1014.53 1014.57 1014.80 1015.09 1015.75 1016.53 1016.96 1016.85 1016.83 1016.94 1016.93 1016.42 1016.24 1015.70 1015.83 1015.03 1012.26 1009.98 1009.58 1009.59 1009.73 1010.52 1011.13 1011.74 1012.62 1013.34 1013.55 1013.77 1014.22 1014.72 1015.19 1015.52 1015.91 1016.30 1016.82
1013.60 1013.84 1014.38 1015.19 1015.44 1015.17 1014.82 1014.64 1014.64 1014.43 1014.58 1014.72 1015.31 1015.45 1016.06 1017.05 1016.62 1016.46 1016.71 1016.73 1016.73 1016.21 1015.63 1015.43 1013.61 1011.04 1009.15 1009.30 1009.63 1009.89 1010.54 1011.13 1011.74 1012.02 1012.54 1013.22 1013.52 1014.02 1014.54 1015.13 1015.69 1016.22 1016.66 1017.09
1014.24 1014.53 1014.82 1014.95 1015.15 1015.10 1014.99 1014.41 1014.56 1014.36 1013.76 1014.74 1015.04 1015.54 1015.67 1016.53 1016.65 1016.51 1017.03 1016.66 1016.95 1015.94 1015.71 1015.11 1012.60 1009.36 1009.36 1009.76 1009.93 1010.32 1010.72 1011.34 1011.97 1012.61 1012.97 1013.46 1013.91 1014.21 1014.73 1015.28 1015.90 1016.47 1016.99 1017.45
1014.61 1014.95 1014.96 1014.77 1014.78 1014.82 1014.25 1013.56 1013.47 1013.47 1013.41 1014.13 1014.72 1015.37 1015.63 1016.54 1016.55 1016.54 1016.66 1016.58 1016.21 1015.93 1015.39 1013.17 1010.21 1009.57 1009.92 1010.24 1010.54 1010.97 1011.28 1011.96 1012.59 1013.22 1013.61 1014.06 1014.54 1014.94 1015.39 1015.88 1016.37 1016.87 1017.27 1017.65
1014.51 1015.07 1015.34 1014.70 1013.44 1012.32 1011.57 1011.73 1011.80 1012.16 1012.44 1013.09 1013.82 1014.75 1015.06 1015.61 1016.02 1016.15 1016.20 1016.07 1015.93 1015.23 1014.06 1011.02 1009.30 1009.63 1010.18 1010.62 1011.09 1011.56 1011.96 1012.55 1013.19 1013.73 1014.21 1014.60 1015.12 1015.57 1015.99 1016.36 1016.69 1017.11 1017.47 1017.90
1014.15 1014.61 1013.70 1012.48 1011.58 1011.75 1011.75 1011.91 1012.27 1012.81 1012.76 1012.87 1013.84 1014.45 1014.74 1015.30 1015.61 1015.53 1015.87 1015.82 1014.55 1013.11 1010.82 1009.48 1009.60 1010.34 1010.85 1011.28 1011.59 1012.00 1012.49 1013.06 1013.65 1014.11 1014.64 1015.08 1015.51 1015.97 1016.38 1016.68 1016.95 1017.37 1017.74 1018.06
1013.85 1013.36 1012.60 1012.14 1012.19 1012.08 1012.21 1012.17 1012.36 1012.69 1012.90 1013.19 1012.96 1013.83 1014.50 1014.35 1014.33 1014.67 1013.88 1013.47 1011.63 1009.86 1009.70 1009.63 1010.18 1010.73 1011.27 1011.60 1012.12 1012.65 1013.11 1013.57 1014.13 1014.65 1015.13 1015.58 1016.00 1016.40 1016.68 1016.89 1017.16 1017.44 1017.76 1018.00
1012.78 1012.14 1011.78 1011.54 1011.64 1011.27 1011.46 1011.69 1011.79 1012.25 1012.65 1012.52 1012.56 1012.92 1013.10 1013.55 1013.36 1012.71 1011.86 1010.81 1009.36 1009.30 1009.66 1010.17 1010.57 1010.78 1011.20 1011.62 1012.17 1012.89 1013.45 1013.91 1014.37 1014.84 1015.25 1015.61 1015.99 1016.33 1016.71 1016.91 1017.07 1017.36 1017.57 1017.68
Wind_Speed
13 13 9 7 4 6 5 3 2 3 2 3 3 4 1 1 8 3 3 2 2 4 5 3 2 2 2 5 4 6 3 5 4 5 3 5 7 9 4 4 5 6 6 6
11 9 7 6 11 12 3 3 2 3 4 3 5 3 3 0 4 5 2 2 2 2 4 3 4 3 4 3 5 7 9 5 4 5 5 4 5 14 2 4 2 14 6 5
6 5 8 8 15 12 2 3 4 2 2 2 3 4 4 3 2 4 1 1 2 4 4 1 5 1 2 4 5 8 5 5 6 6 5 5 7 14 12 4 9 12 13 15
4 6 9 11 17 15 2 1 4 5 4 6 4 4 4 7 4 1 3 3 4 1 2 4 4 2 4 1 3 2 3 3 4 7 7 12 12 16 18 13 15 10 15 17
4 7 9 13 17 16 3 1 3 2 0 7 9 4 4 6 4 5 4 4 5 4 0 4 3 4 1 3 6 3 3 3 4 6 8 12 15 17 15 14 15 15 16 15
3 13 8 16 15 8 1 2 0 4 4 8 9 5 5 7 6 1 4 3 5 3 4 1 5 4 5 3 5 7 5 2 3 4 2 5 5 12 9 13 13 11 10 9
8 13 11 17 13 9 1 2 3 3 4 6 8 3 6 9 4 2 1 3 1 4 4 3 2 3 3 3 4 4 5 3 3 3 4 3 3 5 8 12 12 11 10 10
11 12 12 16 14 6 2 1 3 3 3 4 5 6 6 9 6 7 5 4 4 2 3 3 5 4 5 3 2 2 3 4 0 2 6 4 3 2 3 5 8 11 10 9
12 13 12 14 12 14 3 2 3 3 3 4 4 8 10 9 5 5 2 2 2 3 3 2 2 1 2 3 4 2 3 4 4 1 2 1 5 4 4 5 2 7 8 9
11 15 17 15 16 13 2 3 4 2 3 3 2 4 8 1 2 3 4 3 1 2 2 1 2 3 1 1 0 2 1 1 2 3 3 5 4 2 3 4 4 4 5 7
11 22 27 20 17 15 1 4 3 3 4 5 5 5 2 3 3 3 6 4 3 2 4 2 1 2 2 2 2 1 3 2 1 1 1 4 1 4 4 5 5 5 5 6
24 27 27 26 19 13 5 4 3 6 6 5 5 8 7 5 5 2 4 4 2 1 2 1 2 1 1 3 2 2 1 4 3 5 4 3 3 5 4 3 6 4 4 4
22 25 26 21 16 11 5 6 4 4 4 5 3 3 5 7 5 4 3 2 2 1 3 2 2 3 3 1 1 1 3 2 1 4 5 5 5 4 4 3 5 4 4 3
17 18 18 18 17 13 6 4 1 1 3 3 4 1 3 6 5 3 3 2 2 1 2 1 1 2 1 2 3 4 3 6 5 3 4 4 5 4 5 5 4 3 3 3
19 15 16 14 16 16 9 5 3 3 3 4 4 2 3 6 4 4 3 2 1 1 2 2 0 1 3 0 2 6 8 7 5 2 10 5 10 10 8 6 4 3 1 1
17 16 15 13 14 5 0 2 4 4 2 4 4 2 2 5 5 6 5 3 2 1 2 1 1 2 3 3 4 4 12 7 4 2 9 4 10 10 8 6 4 3 1 1
17 15 17 14 12 5 2 2 3 3 2 3 4 3 2 2 1 1 1 2 1 3 0 2 1 2 3 3 5 4 11 10 6 9 13 7 10 7 9 6 4 3 1 1
19 18 16 18 18 11 2 3 3 4 2 2 4 2 3 0 1 2 1 1 1 0 1 1 3 2 3 7 11 5 10 11 9 12 1 2 10 9 8 6 5 5 4 3
21 18 11 4 3 1 2 2 4 1 2 3 2 4 3 2 2 1 2 1 2 1 3 2 2 4 9 7 9 13 15 14 13 12 5 7 10 10 8 7 5 5 5 4
18 8 2 2 1 3 3 1 1 1 1 1 2 2 3 3 3 2 2 1 1 2 2 2 4 7 12 7 6 11 15 12 15 14 8 9 9 9 9 8 6 5 4 4
2 2 2 2 2 2 1 2 2 1 2 3 3 2 5 3 3 3 2 1 1 3 2 3 4 6 4 4 10 9 13 12 14 6 8 8 7 10 9 7 5 4 4 4
2 4 3 2 2 0 2 3 1 4 3 4 5 4 2 4 2 2 2 2 1 3 2 2 6 4 4 5 10 11 14 13 14 7 8 9 6 8 7 6 5 4 4 3
2 1 1 2 2 4 6 8 4 4 7 7 5 5 4 4 3 2 2 4 4 1 3 6 7 3 3 5 8 9 12 12 11 8 8 8 7 6 5 5 3 4 5 4
3 4 4 7 6 7 6 5 4 3 5 10 7 5 3 3 4 3 4 2 2 3 5 8 2 3 5 6 8 10 12 13 12 10 9 9 8 7 5 4 4 4 5 3
4 4 8 9 3 2 2 3 4 2 6 9 6 4 3 3 3 3 3 3 6 7 7 2 1 2 4 6 8 9 9 10 9 8 8 7 6 5 4 4 4 5 3 4
3 6 4 2 2 3 3 4 4 6 8 1 2 5 4 5 3 5 10 5 8 4 4 0 3 3 4 7 7 6 6 7 7 6 5 5 5 4 3 4 4 4 4 5
5 5 3 3 3 3 4 6 6 8 7 4 4 7 6 4 4 6 6 7 2 1 1 1 1 3 7 7 8 8 8 7 7 7 6 6 5 5 4 5 4 5 5 5
Wind_Direction
289 288 263 239 197 48 190 102 104 130 272 147 195 226 204 44 146 131 122 333 14 217 169 143 147 275 307 37 299 310 342 295 315 285 276 276 298 318 327 324 57 16 77 48
272 280 226 214 120 96 87 96 92 56 300 170 202 143 148 89 145 157 129 179 274 227 189 113 132 231 300 327 320 341 349 356 294 304 149 23 357 9 35 6 336 29 54 66
271 237 196 156 135 128 148 138 117 95 271 272 275 168 167 127 59 122 107 40 215 202 178 22 148 217 317 3 323 322 296 19 4 45 37 341 345 41 52 53 69 85 70 80
293 193 172 161 146 147 81 219 128 158 179 210 231 236 158 143 141 215 199 186 239 262 165 153 144 122 299 254 321 267 325 63 47 62 64 50 45 53 59 57 69 68 81 65
278 173 161 167 150 155 117 128 132 175 62 171 205 196 191 180 122 168 179 270 162 152 34 6 158 133 139 338 319 9 343 95 91 74 60 63 55 30 54 48 79 95 86 74
185 154 138 160 153 144 154 102 27 235 144 168 200 197 154 183 154 165 341 258 153 158 71 37 52 64 92 58 352 348 2 336 302 121 306 288 41 10 27 57 45 42 68 53
163 158 163 171 160 173 316 125 178 239 143 194 196 161 151 164 162 125 105 173 256 83 132 136 161 119 119 130 66 4 336 327 310 356 272 81 55 43 21 66 43 43 60 49
172 175 159 164 161 176 239 23 275 300 101 147 129 149 152 120 112 95 108 47 22 148 219 208 166 158 181 127 59 48 344 275 214 283 44 111 135 95 26 5 43 26 34 39
173 181 174 175 181 159 173 70 337 314 153 79 123 143 166 149 129 144 69 75 31 289 270 254 250 116 48 145 165 202 248 242 280 52 120 123 60 80 358 339 78 28 29 31
224 216 197 197 172 189 112 78 1 293 99 64 277 122 164 175 178 84 131 151 197 285 282 260 293 98 352 182 135 75 88 358 352 65 69 101 96 26 358 254 96 77 51 37
227 201 198 182 185 166 148 81 24 332 70 75 9 6 123 153 234 178 123 157 187 218 254 289 83 285 94 233 64 14 333 316 62 203 174 132 84 176 293 83 94 89 61 48
104 117 135 140 143 152 131 97 75 47 56 77 78 75 47 24 3 346 173 359 169 226 277 255 315 210 206 339 119 181 194 358 18 348 43 82 80 77 95 37 107 81 75 58
110 112 114 128 132 138 105 116 140 104 114 124 163 38 15 28 0 328 274 144 27 189 345 344 7 288 323 237 282 160 184 204 231 214 138 137 128 120 102 83 88 80 65 62
151 107 106 103 105 107 110 104 108 48 106 118 102 326 46 340 340 318 321 340 119 71 269 299 284 292 323 18 1 281 45 161 184 138 159 156 183 175 146 128 118 102 67 47
170 122 114 102 100 96 86 83 52 26 318 103 120 150 37 18 36 60 73 116 274 231 210 233 359 36 250 181 279 240 183 183 196 231 165 198 168 166 163 157 143 101 83 84
166 135 122 108 100 59 308 115 61 27 336 125 143 81 48 36 52 61 54 26 12 336 318 53 118 33 276 261 251 245 185 192 282 164 159 124 138 148 165 165 165 138 106 44
143 124 107 99 80 54 26 44 45 351 292 104 117 140 83 342 334 70 47 20 28 322 53 235 282 183 242 255 245 163 184 183 160 142 127 126 166 177 172 168 169 154 144 155
126 110 99 98 95 121 101 46 342 318 107 58 114 77 193 213 156 160 351 261 229 101 335 203 230 152 228 251 228 171 170 166 169 175 108 191 158 144 159 163 169 188 210 211
120 113 118 99 37 355 61 342 328 343 318 120 131 155 163 183 117 55 166 292 244 65 252 222 224 199 228 227 206 181 178 180 175 167 154 147 163 164 168 175 185 219 223 233
121 118 181 192 107 332 276 186 265 145 40 67 120 130 128 213 180 145 164 268 294 256 127 120 228 255 252 230 225 191 182 182 158 157 178 180 179 183 185 197 207 217 221 211
49 124 83 58 286 244 27 248 242 159 199 162 116 173 138 199 174 159 228 191 276 256 124 250 251 259 213 190 182 189 175 177 181 190 182 184 186 186 189 195 200 204 205 215
98 100 125 146 204 206 214 214 180 216 203 147 150 148 108 136 198 167 193 188 196 254 124 250 254 240 130 166 186 177 175 172 177 176 168 175 181 181 183 183 189 196 195 184
65 313 62 181 175 230 212 196 209 206 166 167 160 140 140 141 205 112 169 188 217 99 224 241 241 116 157 165 168 171 171 168 162 157 144 150 147 155 166 165 176 190 211 209
155 150 218 218 194 234 186 204 172 126 140 143 141 120 141 128 161 151 181 156 193 231 236 236 230 174 161 161 163 162 166 166 159 152 152 154 161 165 162 173 175 205 222 199
157 181 224 215 243 40 33 91 117 114 150 138 126 107 142 142 140 191 122 177 239 224 235 233 72 114 139 153 161 163 160 155 150 152 159 159 157 163 164 177 196 204 206 213
195 218 239 216 239 209 199 189 136 162 155 85 83 126 159 193 175 176 210 193 223 228 218 224 135 156 168 162 160 151 134 136 137 138 149 157 156 163 178 187 206 208 212 225
215 226 223 221 278 240 185 183 174 168 165 195 156 165 184 105 196 227 198 217 237 146 163 170 196 175 169 158 148 142 146 147 150 155 169 172 166 170 191 223 221 216 223 234